When you browse on this site, cookies collect data to enhance your experience and personalize the content and advertising you see.
Visit our Privacy Policy to learn more. By continuing to use the site, you agree to this use of cookies and data.
  • In Netherlands
  • List of Countries
  • For 7 days
  • Water Temperature
  • Weather Map
  • Weather Widgets
  • user-avatar
    Login

    Hourly Weather Dzilebki

    Today, 14 October, Monday

    Time Temperature Precipitation Wind Pressure Humidity
    00:00 +8°C° 0 mm 2 mps 631 mmHg 47%
    01:00 +8°C° 0 mm 2 mps 631 mmHg 44%
    02:00 +9°C° 0 mm 1 mps 631 mmHg 42%
    03:00 +9°C° 0 mm 1 mps 631 mmHg 40%
    04:00 +9°C° 0 mm 1 mps 631 mmHg 39%
    05:00 +8°C° 0 mm 1 mps 631 mmHg 37%
    06:00 +8°C° 0 mm 1 mps 630 mmHg 36%
    07:00 +11°C° 0 mm 1 mps 632 mmHg 34%
    08:00 +13°C° 0 mm 1 mps 633 mmHg 32%
    09:00 +16°C° 0 mm 1 mps 634 mmHg 30%
    10:00 +16°C° 0 mm 1 mps 634 mmHg 31%
    11:00 +17°C° 0 mm 2 mps 634 mmHg 33%
    12:00 +17°C° 0 mm 2 mps 634 mmHg 34%
    13:00 +17°C° 0 mm 2 mps 634 mmHg 37%
    14:00 +17°C° 0 mm 2 mps 633 mmHg 41%
    15:00 +16°C° 0 mm 2 mps 633 mmHg 44%
    16:00 +15°C° 0 mm 1 mps 632 mmHg 51%
    17:00 +13°C° 0 mm 1 mps 632 mmHg 58%
    18:00 +11°C° 0 mm 1 mps 631 mmHg 65%
    19:00 +11°C° 0 mm 1 mps 631 mmHg 64%
    20:00 +10°C° 0 mm 1 mps 631 mmHg 62%
    21:00 +10°C° 0 mm 1 mps 631 mmHg 60%
    22:00 +10°C° 0 mm 1 mps 631 mmHg 57%
    23:00 +10°C° 0 mm 1 mps 631 mmHg 55%

    Tomorrow, 15 October, Tuesday

    Time Temperature Precipitation Wind Pressure Humidity
    00:00 +10°C° 0 mm 1 mps 630 mmHg 52%
    01:00 +10°C° 0 mm 1 mps 630 mmHg 49%
    02:00 +10°C° 0 mm 1 mps 630 mmHg 46%
    03:00 +9°C° 0 mm 2 mps 630 mmHg 43%
    04:00 +9°C° 0 mm 2 mps 629 mmHg 40%
    05:00 +9°C° 0 mm 2 mps 629 mmHg 37%
    06:00 +9°C° 0 mm 2 mps 629 mmHg 33%
    07:00 +12°C° 0 mm 1 mps 630 mmHg 31%
    08:00 +14°C° 0 mm 1 mps 631 mmHg 29%
    09:00 +16°C° 0 mm 0 mps 632 mmHg 27%
    10:00 +19°C° 0 mm 1 mps 632 mmHg 28%
    11:00 +19°C° 0 mm 1 mps 632 mmHg 28%
    12:00 +19°C° 0 mm 2 mps 632 mmHg 29%
    13:00 +19°C° 0 mm 2 mps 631 mmHg 31%
    14:00 +19°C° 0 mm 2 mps 631 mmHg 33%
    15:00 +19°C° 0 mm 1 mps 630 mmHg 36%
    16:00 +16°C° 0 mm 1 mps 629 mmHg 40%
    17:00 +15°C° 0 mm 1 mps 629 mmHg 44%
    18:00 +13°C° 0 mm 1 mps 628 mmHg 49%
    19:00 +12°C° 0 mm 1 mps 628 mmHg 45%
    20:00 +12°C° 0 mm 1 mps 628 mmHg 41%
    21:00 +12°C° 0 mm 2 mps 628 mmHg 38%
    22:00 +12°C° 0 mm 2 mps 628 mmHg 36%
    23:00 +12°C° 0 mm 2 mps 628 mmHg 34%

    Day after tomorrow, 16 October, Wednesday

    Time Temperature Precipitation Wind Pressure Humidity
    00:00 +10°C° 0 mm 2 mps 627 mmHg 32%
    01:00 +10°C° 0 mm 2 mps 627 mmHg 33%
    02:00 +10°C° 0 mm 2 mps 627 mmHg 33%
    03:00 +10°C° 0 mm 2 mps 627 mmHg 33%
    04:00 +10°C° 0 mm 2 mps 627 mmHg 33%
    05:00 +9°C° 0 mm 2 mps 627 mmHg 34%
    06:00 +9°C° 0 mm 2 mps 627 mmHg 34%
    07:00 +12°C° 0 mm 1 mps 628 mmHg 33%
    08:00 +14°C° 0 mm 1 mps 629 mmHg 31%
    09:00 +16°C° 0 mm 1 mps 630 mmHg 30%
    10:00 +18°C° 0 mm 1 mps 630 mmHg 30%
    11:00 +18°C° 0 mm 2 mps 630 mmHg 31%
    12:00 +18°C° 0 mm 2 mps 630 mmHg 31%
    13:00 +18°C° 0 mm 2 mps 630 mmHg 36%
    14:00 +17°C° 0 mm 2 mps 630 mmHg 40%
    15:00 +16°C° 0 mm 2 mps 629 mmHg 45%
    16:00 +15°C° 0 mm 1 mps 629 mmHg 53%
    17:00 +13°C° 0 mm 1 mps 628 mmHg 61%
    18:00 +10°C° 0 mm 0 mps 628 mmHg 69%
    19:00 +10°C° 0 mm 0 mps 628 mmHg 68%
    20:00 +9°C° 0 mm 0 mps 628 mmHg 66%
    21:00 +10°C° 0 mm 1 mps 628 mmHg 64%
    22:00 +10°C° 0 mm 1 mps 628 mmHg 64%
    23:00 +10°C° 0 mm 1 mps 628 mmHg 63%

    17 October, Thursday

    Time Temperature Precipitation Wind Pressure Humidity
    00:00 +9°C° 0 mm 1 mps 628 mmHg 63%
    01:00 +9°C° 0 mm 1 mps 628 mmHg 60%
    02:00 +9°C° 0 mm 1 mps 628 mmHg 57%
    03:00 +9°C° 0 mm 1 mps 628 mmHg 55%
    04:00 +9°C° 0 mm 1 mps 628 mmHg 52%
    05:00 +9°C° 0 mm 1 mps 628 mmHg 48%
    06:00 +9°C° 0 mm 1 mps 628 mmHg 45%
    07:00 +11°C° 0 mm 1 mps 629 mmHg 42%
    08:00 +13°C° 0 mm 1 mps 629 mmHg 39%
    09:00 +15°C° 0 mm 1 mps 630 mmHg 37%
    10:00 +15°C° 0 mm 2 mps 630 mmHg 37%
    11:00 +16°C° 0 mm 2 mps 630 mmHg 38%
    12:00 +17°C° 0 mm 2 mps 630 mmHg 38%
    13:00 +16°C° 0 mm 2 mps 630 mmHg 41%
    14:00 +16°C° 0 mm 2 mps 630 mmHg 44%
    15:00 +15°C° 0 mm 2 mps 629 mmHg 48%
    16:00 +14°C° 0 mm 2 mps 629 mmHg 54%
    17:00 +12°C° 0 mm 1 mps 628 mmHg 60%
    18:00 +11°C° 0 mm 1 mps 627 mmHg 66%
    19:00 +10°C° 0 mm 1 mps 627 mmHg 62%
    20:00 +10°C° 0 mm 1 mps 627 mmHg 59%
    21:00 +10°C° 0 mm 1 mps 627 mmHg 55%
    22:00 +10°C° 0 mm 1 mps 627 mmHg 51%
    23:00 +10°C° 0 mm 1 mps 627 mmHg 47%

    18 October, Friday

    Time Temperature Precipitation Wind Pressure Humidity
    00:00 +9°C° 0 mm 2 mps 626 mmHg 44%
    01:00 +9°C° 0 mm 2 mps 626 mmHg 42%
    02:00 +9°C° 0 mm 2 mps 626 mmHg 40%
    03:00 +9°C° 0 mm 2 mps 626 mmHg 38%
    04:00 +9°C° 0 mm 2 mps 626 mmHg 39%
    05:00 +9°C° 0 mm 2 mps 626 mmHg 40%
    06:00 +9°C° 0 mm 2 mps 626 mmHg 41%
    07:00 +12°C° 0 mm 1 mps 626 mmHg 38%
    08:00 +14°C° 0 mm 1 mps 627 mmHg 36%
    09:00 +16°C° 0 mm 1 mps 628 mmHg 33%
    10:00 +18°C° 0 mm 1 mps 628 mmHg 34%
    11:00 +17°C° 0 mm 2 mps 628 mmHg 34%
    12:00 +18°C° 0 mm 2 mps 628 mmHg 34%
    13:00 +18°C° 0 mm 2 mps 628 mmHg 37%
    14:00 +17°C° 0 mm 2 mps 627 mmHg 41%
    15:00 +17°C° 0 mm 2 mps 627 mmHg 44%
    16:00 +15°C° 0 mm 1 mps 627 mmHg 50%
    17:00 +13°C° 0 mm 1 mps 626 mmHg 56%
    18:00 +11°C° 0 mm 0 mps 625 mmHg 62%
    19:00 +11°C° 0 mm 1 mps 626 mmHg 61%
    20:00 +11°C° 0 mm 1 mps 626 mmHg 59%
    21:00 +11°C° 0 mm 1 mps 626 mmHg 57%
    22:00 +11°C° 0 mm 1 mps 626 mmHg 57%
    23:00 +10°C° 0 mm 1 mps 626 mmHg 57%

    19 October, Saturday

    Time Temperature Precipitation Wind Pressure Humidity
    00:00 +10°C° 0 mm 1 mps 626 mmHg 57%
    01:00 +10°C° 0 mm 1 mps 626 mmHg 58%
    02:00 +9°C° 0 mm 1 mps 626 mmHg 58%
    03:00 +8°C° 0 mm 0 mps 626 mmHg 59%
    04:00 +8°C° 0 mm 0 mps 626 mmHg 60%
    05:00 +8°C° 0 mm 0 mps 626 mmHg 61%
    06:00 +7°C° 0 mm 0 mps 626 mmHg 62%
    07:00 +10°C° 0 mm 1 mps 627 mmHg 60%
    08:00 +11°C° 0 mm 1 mps 628 mmHg 58%
    09:00 +12°C° 0 mm 1 mps 629 mmHg 56%
    10:00 +12°C° 0.4 mm 1 mps 629 mmHg 61%
    11:00 +12°C° 0.4 mm 1 mps 629 mmHg 66%
    12:00 +12°C° 0.4 mm 2 mps 629 mmHg 72%
    13:00 +12°C° 0.3 mm 1 mps 629 mmHg 73%
    14:00 +12°C° 0.3 mm 1 mps 628 mmHg 75%
    15:00 +12°C° 0.3 mm 1 mps 628 mmHg 76%
    16:00 +11°C° 0 mm 1 mps 628 mmHg 81%
    17:00 +10°C° 0 mm 1 mps 628 mmHg 86%
    18:00 +9°C° 0 mm 1 mps 628 mmHg 91%
    19:00 +9°C° 0 mm 1 mps 628 mmHg 91%
    20:00 +8°C° 0 mm 1 mps 628 mmHg 91%
    21:00 +8°C° 0 mm 1 mps 628 mmHg 90%
    22:00 +8°C° 0 mm 1 mps 628 mmHg 90%
    23:00 +8°C° 0 mm 1 mps 628 mmHg 90%
    Show more